Tracking 25710 objects as of 5-Jul-2022
HD Live streaming from Space Station
objects crossing your sky now

FENGYUN 1C DEB

Track FENGYUN 1C DEB now!
10-day predictions


NORAD ID: 31266
Int'l Code: 1999-025BMY
Perigee: 737.9 km
Apogee: 932.2 km
Inclination: 99.1 °
Period: 101.5 minutes
Semi major axis: 7206 km
RCS: 0.0121 m2 (small)
Launch date: May 10, 1999
Source: People's Republic of China (PRC)
Launch site: Taiyaun Space Center, China (TSC)

Note: This is SATELLITE DEBRIS
aabbcc
Your satellite tracking list
Your tracking list is empty




NASA's NSSDC Master Catalog

Two Line Element Set (TLE):
1 31266U 99025BMY 22185.58200528  .00000166  00000-0  93248-4 0  9994
2 31266  99.1353 103.6545 0134846 258.6567 226.2486 14.19247704793568
Source of the keplerian elements: AFSPC